Current weather by "City, St" or "zip code"  
 

Current Conditions: Lynchburg, Lynchburg Regional Airport, VA

Fair


53.0 F

Last Updated on Sep 22 2020, 9:54 pm EDT
Humidity: 83%
Wind Speed: S 3.5 mph
Barometer 30.08 in
Dewpoint: 48.0 F
Visibility: 10.00 mi
Precip: --
Heat Index: NA
Wind Chill: NA
Current conditions at:

Lynchburg, Lynchburg Regional Airport, VA (KLYH)

Lat: 37.32083 Lon: 79.20667

Local Radar Image active severe weather and emergency alerts image image weather storm and storm spotter reports image weather observation monitoring service image
Local
Radar
Active
Alerts
Storm Reports Obs
Monitoring

Sign-up For Email & Text Message Weather Alert Notification Services



Advertise Here

Observation History for Lynchburg, Lynchburg Regional Airport, VA


Time Wind
(mph)
Vis
(mi)
Weather Precip (in) Temperature (F) Relative
Humidity
Wind
Chill
(F)
Heat
Index
(F)
Pressure
Air Dwpt altimeter
(in)
sea level
(mb)
Rmks
9:54 pm EDT S 3.5 10.00 Fair -- 53.0 48.0 83% NA NA 30.08 1018.4
8:54 pm EDT SW 3.5 10.00 Fair -- 57.0 50.0 78% NA NA 30.08 1018.5
7:54 pm EDT SW 4.6 10.00 Fair -- 58.0 50.0 75% 58 NA 30.08 1018.4
6:54 pm EDT SW 3.5 10.00 Fair -- 61.0 51.1 70% NA NA 30.08 1018.7
5:54 pm EDT SW 5.8 10.00 Fair -- 69.0 46.9 45% NA NA 30.09 1018.9
4:54 pm EDT 3.5 10.00 Fair -- 71.0 46.0 41% NA NA 30.11 1019.4
3:54 pm EDT N 0.0 10.00 Fair -- 72.0 44.1 37% NA NA 30.13 1020.1
2:54 pm EDT N 0.0 10.00 Fair -- 70.0 44.1 39% NA NA 30.17 1021.2
1:54 pm EDT N 0.0 10.00 Fair -- 70.0 45.0 41% NA NA 30.19 1022.2
12:54 pm EDT N 0.0 10.00 Fair -- 67.0 44.1 44% NA NA 30.23 1023.3
11:54 am EDT E 3.5 10.00 Fair -- 65.0 45.0 49% NA NA 30.26 1024.5
10:54 am EDT N 0.0 10.00 Fair -- 60.0 45.0 58% NA NA 30.28 1025.4
9:54 am EDT 3.5 10.00 Fair -- 56.0 46.9 72% NA NA 30.30 1025.9
8:54 am EDT S 3.5 10.00 Fair -- 51.0 48.0 89% NA NA 30.30 1025.9
7:54 am EDT N 0.0 10.00 Fair -- 43.0 41.0 93% NA NA 30.31 1026.4
6:54 am EDT N 0.0 7.00 Fair -- 39.0 % NA NA 30.30 1026.2
5:54 am EDT N 0.0 10.00 Fair -- 39.0 % NA NA 30.31 1026.3
4:54 am EDT N 0.0 10.00 Fair -- 43.0 % NA NA 30.31 1026.3
3:54 am EDT N 0.0 6.00 Fair with Haze -- 43.0 % NA NA 30.32 1026.7
2:54 am EDT N 0.0 10.00 Fair -- 43.0 % NA NA 30.34 1027.3
1:54 am EDT N 0.0 6.00 Fair with Haze -- 45.0 % NA NA 30.36 1028.0
12:54 am EDT N 0.0 10.00 Fair -- 45.0 % NA NA 30.38 1028.5
11:54 pm EDT N 0.0 10.00 Fair -- 45.0 % NA NA 30.39 1028.8
10:54 pm EDT N 0.0 10.00 Fair -- 46.0 % NA NA 30.39 1029.2

Regional Weather Observation


Roanoke, Roanoke Regional Airport, VA (KROA)

Fair
60.0 F

Hot Springs / Ingalls, VA (KHSP)

Fair
54.0 F

Farmville, VA (KFVX)

Fair
51.0 F

Lewisburg / Greenbrier, WV (KLWB)

Fair
47.0 F

Virginia Tech Airport, VA (KBCB)

Fair
58.0 F

Danville, Danville Regional Airport, VA (KDAN)

Fair
54.0 F